Regional Weather Roundup
Issued by NWS

Home | Current Version | Previous Version | Graphics & Text | Print | Product List | Glossary On
Versions: 1 2 3 4 5 6 7 8 9 10 11 12 13 14 15 16 17 18 19 20 21 22 23 24 25 26 27 28 29 30 31 32 33 34 35 36 37 38 39 40 41 42 43 44 45 46 47 48 49 50
000
ASUS44 KMEG 252300
RWRTN
TENNESSEE HOURLY STATE WEATHER ROUNDUP
NATIONAL WEATHER SERVICE MEMPHIS TN
600 PM CDT SAT OCT 25 2014

TNZ002-004-019-021-049-052-054-088>092-260000-
WEST TENNESSEE

CITY           SKY/WX    TMP DP  RH WIND       PRES   REMARKS
MEMPHIS INTL   CLEAR     78  62  57 SW3       30.02S
NWS MEMPHIS      N/A     78 N/A N/A MISG        N/A
JACKSON        CLEAR     73  63  70 W6        30.02R
DYERSBURG      CLEAR     75  57  53 CALM      30.02S
UNION CITY     CLEAR     73  63  68 NW3       30.00S
PARIS          CLEAR     73  61  64 CALM      30.02R
LEXINGTON      CLEAR     75  63  64 W3        30.01S
SAVANNAH       CLOUDY    75  64  69 CALM      30.03R
$$

TNZ008-025-027-028-033-062-065-066-260000-
NORTH MIDDLE TENNESSEE

CITY           SKY/WX    TMP DP  RH WIND       PRES   REMARKS
NASHVILLE      PTCLDY    74  62  66 NW6       30.01R
CLARKSVILLE    CLEAR     74  61  63 NW5       30.01R
CROSSVILLE     CLEAR     63  55  75 W3        30.05F
$$

TNZ061-075-076-078-094-096-097-260000-
SOUTH MIDDLE TENNESSEE

CITY           SKY/WX    TMP DP  RH WIND       PRES   REMARKS
WINCHESTER     MOCLDY    72  59  64 CALM      30.04R
SHELBYVILLE    PTCLDY    73  64  73 CALM      30.02S
$$

TNZ017-018-042-046-047-260000-
NORTHEAST TENNESSEE

CITY           SKY/WX    TMP DP  RH WIND       PRES   REMARKS
TRI CITIES     CLOUDY    62  49  62 SW6       30.01S
ELIZABETHTON   CLOUDY    59  48  67 CALM      30.01S
$$

TNZ012-013-036-069-073-074-260000-
CENTRAL EAST TENNESSEE

CITY           SKY/WX    TMP DP  RH WIND       PRES   REMARKS
KNOXVILLE      CLOUDY    66  51  58 SW7       30.01R
OAK RIDGE      CLEAR     67  51  56 SW3       30.03R
GATLINBURG     PTCLDY    64  48  55 CALM      30.01S
$$

TNZ083-085-099-260000-
SOUTHEAST TENNESSEE

CITY           SKY/WX    TMP DP  RH WIND       PRES   REMARKS
CHATTANOOGA    MOCLDY    71  56  58 CALM      30.02R
$$

SKY/WX REPORTED AS FAIR MEANS FEW OR NO CLOUDS BELOW
12 THOUSAND FEET.




USA.gov is the U.S. government's official web portal to all federal, state and local government web resources and services.